DAL2104 KATL-KAUS

Flight info

Callsign DAL2104
Flight time N/A
Altitude 30000
Route POUNC2 GRGIA GARTS LCH WEEED WLEEE7
Aircraft A321/M-SDE3FGHIRWY/LB1

Departure

Time 2026-05-07 16:20
Airport Hartsfield Jackson Atlanta International Airport (KATL)

Arrival

Time N/A
Airport Austin Bergstrom International Airport (KAUS)
Time Latitude Longitude Altitude Speed Heading
2026-05-07 15:54 33.64289 -84.43328 1036 ft 0 kts 92°
2026-05-07 16:08 33.64289 -84.43332 1026 ft 3 kts 92°
2026-05-07 16:08 33.64290 -84.43363 1035 ft 4 kts 92°
2026-05-07 16:08 33.64287 -84.43390 1035 ft 4 kts 33°
2026-05-07 16:08 33.64270 -84.43394 1035 ft 4 kts
2026-05-07 16:09 33.64251 -84.43395 1035 ft 0 kts
2026-05-07 16:11 33.64259 -84.43395 1035 ft 4 kts
2026-05-07 16:11 33.64315 -84.43394 1035 ft 12 kts
2026-05-07 16:11 33.64424 -84.43385 1035 ft 18 kts 22°
2026-05-07 16:12 33.64460 -84.43260 1036 ft 17 kts 90°
2026-05-07 16:12 33.64460 -84.43126 1036 ft 15 kts 90°
2026-05-07 16:12 33.64460 -84.43005 1036 ft 14 kts 89°
2026-05-07 16:12 33.64461 -84.42894 1035 ft 13 kts 89°
2026-05-07 16:13 33.64462 -84.42788 1035 ft 12 kts 90°
2026-05-07 16:13 33.64466 -84.42688 1035 ft 13 kts 87°
2026-05-07 16:13 33.64469 -84.42533 1035 ft 25 kts 90°
2026-05-07 16:13 33.64471 -84.42310 1035 ft 26 kts 85°
2026-05-07 16:14 33.64535 -84.42115 1035 ft 24 kts 71°
2026-05-07 16:14 33.64542 -84.41923 1035 ft 23 kts 91°
2026-05-07 16:14 33.64542 -84.41742 1036 ft 21 kts 89°
2026-05-07 16:14 33.64545 -84.41576 1036 ft 19 kts 90°
2026-05-07 16:15 33.64545 -84.41424 1036 ft 17 kts 90°
2026-05-07 16:15 33.64545 -84.41285 1036 ft 16 kts 90°
2026-05-07 16:15 33.64546 -84.41160 1036 ft 14 kts 90°
2026-05-07 16:15 33.64545 -84.41048 1036 ft 13 kts 91°
2026-05-07 16:16 33.64542 -84.40948 1035 ft 11 kts 90°
2026-05-07 16:16 33.64547 -84.40850 1035 ft 15 kts 77°
2026-05-07 16:16 33.64571 -84.40711 1035 ft 17 kts 91°
2026-05-07 16:16 33.64580 -84.40601 1034 ft 4 kts 64°
2026-05-07 16:17 33.64585 -84.40590 1034 ft 1 kts 57°
2026-05-07 16:17 33.64601 -84.40575 1034 ft 6 kts 27°
2026-05-07 16:17 33.64666 -84.40593 1033 ft 11 kts 327°
2026-05-07 16:17 33.64680 -84.40632 1033 ft 0 kts 272°
2026-05-07 16:19 33.64682 -84.40703 1033 ft 33 kts 271°
2026-05-07 16:19 33.64683 -84.41261 1037 ft 98 kts 269°
2026-05-07 16:19 33.64680 -84.42289 1034 ft 147 kts 270°
2026-05-07 16:19 33.64676 -84.43616 1362 ft 159 kts 271°
2026-05-07 16:20 33.64670 -84.44936 2050 ft 158 kts 272°
2026-05-07 16:20 33.64815 -84.46237 2658 ft 157 kts 283°
2026-05-07 16:20 33.65051 -84.47531 2983 ft 169 kts 282°
2026-05-07 16:20 33.65319 -84.49011 3118 ft 189 kts 282°
2026-05-07 16:21 33.65610 -84.50629 3258 ft 207 kts 281°
2026-05-07 16:21 33.65929 -84.52396 3380 ft 232 kts 281°
2026-05-07 16:21 33.66289 -84.54383 3851 ft 246 kts 281°
2026-05-07 16:21 33.66651 -84.56361 4779 ft 245 kts 281°
2026-05-07 16:22 33.67017 -84.58361 5670 ft 244 kts 280°
2026-05-07 16:22 33.67367 -84.60350 6544 ft 244 kts 279°
2026-05-07 16:22 33.67704 -84.62369 7280 ft 248 kts 281°
2026-05-07 16:22 33.68045 -84.64403 8037 ft 248 kts 279°
2026-05-07 16:23 33.68385 -84.66439 8728 ft 249 kts 279°
2026-05-07 16:23 33.68729 -84.68487 9424 ft 251 kts 279°
2026-05-07 16:23 33.69076 -84.70539 10181 ft 252 kts 279°
2026-05-07 16:23 33.69363 -84.72692 10444 ft 272 kts 272°
2026-05-07 16:24 33.69281 -84.75042 10607 ft 294 kts 261°
2026-05-07 16:24 33.68705 -84.77499 10725 ft 318 kts 249°
2026-05-07 16:24 33.67560 -84.79845 11136 ft 332 kts 237°
2026-05-07 16:24 33.66161 -84.82071 11756 ft 335 kts 237°
2026-05-07 16:25 33.64761 -84.84321 12451 ft 336 kts 237°
2026-05-07 16:25 33.63366 -84.86579 13121 ft 337 kts 238°
2026-05-07 16:25 33.61973 -84.88846 13766 ft 338 kts 238°
2026-05-07 16:25 33.60576 -84.91120 14318 ft 339 kts 238°
2026-05-07 16:26 33.59169 -84.93402 14893 ft 340 kts 238°
2026-05-07 16:26 33.57758 -84.95683 15430 ft 341 kts 238°
2026-05-07 16:26 33.56340 -84.97969 16011 ft 341 kts 239°
2026-05-07 16:26 33.55403 -84.99480 16388 ft 342 kts 239°
2026-05-07 16:27 33.53513 -85.02522 17121 ft 344 kts 239°
2026-05-07 16:27 33.52065 -85.04849 17673 ft 345 kts 239°
2026-05-07 16:27 33.50650 -85.07118 18289 ft 343 kts 239°
2026-05-07 16:27 33.49217 -85.09415 18756 ft 344 kts 239°
2026-05-07 16:28 33.47779 -85.11721 19168 ft 346 kts 239°
2026-05-07 16:28 33.46333 -85.14038 19563 ft 349 kts 239°
2026-05-07 16:28 33.44871 -85.16378 19950 ft 351 kts 239°
2026-05-07 16:28 33.43399 -85.18735 20306 ft 354 kts 239°
2026-05-07 16:29 33.42099 -85.21221 20655 ft 351 kts 248°
2026-05-07 16:29 33.41247 -85.23952 20993 ft 351 kts 255°
2026-05-07 16:29 33.40569 -85.26763 21330 ft 353 kts 255°
2026-05-07 16:29 33.39884 -85.29560 21669 ft 355 kts 255°
2026-05-07 16:30 33.39176 -85.32417 21975 ft 358 kts 255°
2026-05-07 16:30 33.38462 -85.35278 22311 ft 360 kts 255°
2026-05-07 16:30 33.37741 -85.38160 22632 ft 362 kts 255°
2026-05-07 16:30 33.37019 -85.41051 22936 ft 365 kts 255°
2026-05-07 16:31 33.36292 -85.43976 23242 ft 367 kts 255°
2026-05-07 16:31 33.35564 -85.46913 23523 ft 370 kts 255°
2026-05-07 16:31 33.34830 -85.49878 23784 ft 372 kts 255°
2026-05-07 16:31 33.34104 -85.52808 24040 ft 374 kts 254°
2026-05-07 16:32 33.33354 -85.55836 24312 ft 375 kts 254°
2026-05-07 16:32 33.32617 -85.58797 24585 ft 377 kts 254°